This is the latest recevied weather packets stored in our database for station/object WD9EKA. If no packets are shown the sender has not sent any weather packets the latest 10 day(s).
| Time | Temp. | Humidity | Pressure | Rain* | Wind** | Luminosity | Snow |
|---|---|---|---|---|---|---|---|
| 1777598287 | 12.78° C | 65% | 1010.1 hPa | 0 mm | - | - | - |
| 1777597967 | 12.78° C | 65% | 1010.1 hPa | 0 mm | - | - | - |
| 1777597647 | 12.78° C | 67% | 1010 hPa | 0 mm | - | - | - |
| 1777597311 | 12.78° C | 70% | 1010.2 hPa | 0 mm | - | - | - |
| 1777596990 | 12.78° C | 68% | 1010 hPa | 0 mm | - | - | - |
| 1777596671 | 12.78° C | 66% | 1010 hPa | 0 mm | - | - | - |
| 1777596351 | 12.78° C | 67% | 1010.1 hPa | 0 mm | - | - | - |
| 1777596031 | 13.33° C | 64% | 1010.1 hPa | 0 mm | - | - | - |
| 1777595711 | 13.89° C | 65% | 1010 hPa | 0 mm | - | - | - |
| 1777595391 | 13.89° C | 61% | 1009.9 hPa | 0 mm | - | - | - |
| 1777595070 | 13.89° C | 60% | 1010 hPa | 0 mm | - | - | - |
| 1777594751 | 13.89° C | 61% | 1009.7 hPa | 0 mm | - | - | - |
| 1777594431 | 13.89° C | 60% | 1009.9 hPa | 0 mm | - | - | - |
| 1777594111 | 13.89° C | 61% | 1010 hPa | 0 mm | - | - | - |
| 1777593791 | 14.44° C | 56% | 1009.8 hPa | 0 mm | - | - | - |
| 1777593471 | 14.44° C | 54% | 1009.8 hPa | 0 mm | - | - | - |
| 1777593151 | 14.44° C | 54% | 1009.8 hPa | 0 mm | - | - | - |
| 1777592831 | 15° C | 53% | 1009.9 hPa | 0 mm | - | - | - |
| 1777592511 | 15° C | 54% | 1010.1 hPa | 0 mm | - | - | - |
| 1777592193 | 15° C | 53% | 1009.9 hPa | 0 mm | - | - | - |
| 1777591833 | 15° C | 53% | 1010 hPa | 0 mm | - | - | - |
| 1777591533 | 15° C | 53% | 1010 hPa | 0 mm | - | - | - |
| 1777591173 | 15.56° C | 50% | 1009.9 hPa | 0 mm | - | - | - |
| 1777590813 | 15.56° C | 48% | 1009.8 hPa | 0 mm | - | - | - |
| 1777590511 | 15.56° C | 51% | 1010.2 hPa | 0 mm | - | - | - |
* Rain latest hour (hover to see other rain measurements)
** Current wind speed in m/s (hover to see current wind gust speed)